7 * 24
多渠道服务支持
TIANQI 21(天启21,又称“合肥高新一号”),是中国天启星座的组网卫星,于北京时间2023年9月5日在山东海阳,由谷神星一号运载火箭成功发射,本次任务采取“一箭四星”方式,一同发射天启22-24星。该卫星是合肥低轨卫星产业布局的重要成果,将为天启星座低轨物联网提供通信服务支撑,推动天地一体化物联网应用落地。
中国
(CN)
| 数据来源 | 国际轨道数据 |
| 星历时间: | 2026-07-27T21:50:43+0800 8小时前 查看轨道信息 |
| 半长轴: | 7192.894km |
| 偏心率: | 0.0013163 |
| 轨道倾角: | 49.973° |
| 近地点辐角 | 39.257° |
| 升交点赤经 | 342.374° |
| 平近点角 | 320.930° |
| 近地点: | 805.288km |
| 远地点: | 824.226km |
| 周期: | 101.185分钟 |
| 每日圈数: | 14.231391 |